Flag for Germany Weather past 2 weeks in Willich, North Rhine-Westphalia, Germany

Now
86 °F

Clear.


Feels Like: 91 °F
Forecast: 70 / 86 °F
Wind: 5 mph from North

Location: Monchengladbach Airport

Current Time: Aug 30, 2015 at 3:01:51 PM

Latest Report: Aug 30, 2015 at 2:20 PM


Visibility: 10 mi

Pressure: 29.98 "Hg

Humidity: 59%

Dew point: 70 °F

Location of WillichLocation

Historic Weather in Willich — Graph

°F

Willich temperature yesterday

Maximum temperature yesterday: 77 °F (at 3:50 PM)
Minimum temperature yesterday: 55 °F (at 7:50 AM)
Average temperature yesterday: 71 °F

Past Weeks' High & Low Weather Summary

 TemperatureHumidityPressure
High86 °F (Aug 30, 1:20 PM)100% (Aug 15, 6:50 PM)30.24 "Hg (Aug 15, 6:50 PM)
Low54 °F (Aug 19, 7:50 AM)34% (Aug 22, 2:20 PM)29.50 "Hg (Aug 24, 4:20 PM)
Average67 °F72%29.96 "Hg
* Reported Aug 15 1:20 PM — Aug 30 1:50 PM, Willich, Weather by CustomWeather, © 2015

Note: Actual official high and low records may vary slightly from our data, if they occured in-between our weather recording intervals... More about our weather records

Advertising

Willich weather history for previous 24 hours

 ConditionsComfort  
Time TempWeatherWind HumidityBarometerVisibility
1:50 PM
Sun, Aug 30
86 °FPassing clouds.5 mph59%29.98 "HgN/A
1:20 PM86 °FClear.3 mph62%29.98 "Hg10 mi
12:50 PM84 °FClear.3 mph62%30.01 "Hg10 mi
12:20 PM82 °FSunny.5 mph70%30.01 "Hg10 mi
11:50 AM81 °FSunny.3 mph74%30.01 "Hg10 mi
11:20 AM77 °FPassing clouds.5 mph79%30.01 "HgN/A
10:50 AM73 °FSunny.7 mph83%30.01 "Hg10 mi
10:20 AM72 °FPassing clouds.5 mph83%30.01 "HgN/A
9:50 AM70 °FSunny.2 mph88%30.04 "Hg10 mi
9:20 AM68 °FSunny.1 mph88%30.04 "Hg10 mi
8:50 AM66 °FSunny.2 mph88%30.04 "Hg10 mi
8:20 AM66 °FSunny.2 mph88%30.04 "Hg10 mi
7:50 AM66 °FPassing clouds.5 mph88%30.04 "HgN/A
7:50 PM
Sat, Aug 29
73 °FClear.No wind74%30.09 "Hg10 mi
7:20 PM75 °FClear.No wind74%30.09 "Hg10 mi
6:50 PM73 °FClear.1 mph74%30.09 "Hg10 mi
6:20 PM73 °FClear.5 mph69%30.09 "Hg10 mi
5:50 PM75 °FPassing clouds.5 mph61%30.12 "HgN/A
5:20 PM77 °FPassing clouds.6 mph61%30.12 "HgN/A
4:50 PM75 °FPassing clouds.5 mph61%30.12 "HgN/A
4:20 PM75 °FClear.3 mph61%30.12 "Hg10 mi
3:50 PM77 °FPassing clouds.3 mph57%30.12 "HgN/A
3:20 PM75 °FClear.2 mph57%30.15 "Hg10 mi
Weather by CustomWeather, © 2015

See weather overviewHow to use our weather pages